User: anonymous   Login
Location: Aultman
(40.9284°N, 81.4173°W)
Time: 19:08:48
(UTC+00:00)
Language:

CZ-2C R/B - Orbit

View from above orbital plane
View from above orbital plane
View from above satellite
View from above satellite

Ground track
Ground track

The orbit data is extracted from the following two-line orbital elements,

1 31114U 07010B   21126.66819679  .00000020  00000-0  27656-4 0  9994
2 31114  98.2353 323.3156 0060605  45.5418 315.0694 14.19359080728857
Epoch (UTC): 06 May 2021 16:02:12
Eccentricity: 0.0060605
inclination: 98.2353°
perigee height: 784 km
apogee height: 871 km
right ascension of ascending node: 323.3156°
argument of perigee: 45.5418°
revolutions per day: 14.19359080
mean anomaly at epoch: 315.0694°
orbit number at epoch: 72885

The dashed part of the orbit path shows where the satellite is in the earth's shadow,  

DLR